Location: Grust
(42.8833°N, 0.0333°W)
Time: 14:14:30
(UTC+00:00)

NOSS 3-3 (C) - Pass Details

Date: 25 October 2020
Orbit: 825 x 1387 km, 63.4° (Epoch: 22 November)

Event Time Altitude Azimuth Distance (km) Brightness Sun altitude
Rises 19:10:02 0° 209° (SSW) 3,384 7.1 -24.1°
Reaches altitude 10° 19:12:23 10° 208° (SSW) 2,486 6.4 -24.6°
Maximum altitude 19:18:05 77° 123° (ESE) 944 3.7 -25.6°
Enters shadow 19:19:23 57° 54° (NE) 1,095 3.9 -25.8°
